{"data":{"norad_id":67275,"epoch":"2026-09-20T13:01:02.354304Z","epoch_age_seconds":99490,"freshness":"FRESH","line1":"1 67275U 25313AD  26263.54238836  .00003928  00000+0  16636-3 0  9995","line2":"2 67275  97.3831 336.5751 0014240  39.6254 320.6021 15.23663754 40460","mean_motion":15.23663754,"eccentricity":0.001424,"inclination_deg":97.3831,"raan_deg":336.5751,"arg_perigee_deg":39.6254,"mean_anomaly_deg":320.6021,"bstar":0.00016636,"rev_number":4046,"period_min":94.509040870706,"perigee_km":485.0137920853,"apogee_km":504.58791909803,"semimajor_km":6872.9378555917,"source":"CELESTRAK","updated_at":"2026-09-21T09:00:16.545066Z"}}